QPF
0.10 0.11 0.10 0.07 0.04 0.04 0.04 0.03 0.02 0.01 0.01 0.01 0.01 0.02 0.03 0.03 0.04 0.04 0.03 0.02 0.02 0.02 0.02 0.02 0.03 0.03 0.04 0.04 0.04 0.05 0.07 0.07 0.06 0.09 0.09 0.11 0.11 0.08 0.06 0.04 0.03 0.04 0.04
0.07 0.10 0.15 0.11 0.06 0.06 0.05 0.04 0.02 0.01 0.01 0.02 0.02 0.03 0.03 0.04 0.03 0.04 0.05 0.03 0.02 0.02 0.03 0.03 0.03 0.03 0.03 0.05 0.05 0.05 0.07 0.07 0.05 0.07 0.08 0.12 0.14 0.12 0.09 0.07 0.05 0.03 0.03
0.09 0.12 0.13 0.08 0.07 0.06 0.07 0.05 0.02 0.01 0.01 0.02 0.02 0.03 0.04 0.05 0.04 0.05 0.07 0.05 0.05 0.04 0.04 0.04 0.04 0.04 0.04 0.06 0.07 0.05 0.06 0.06 0.04 0.05 0.05 0.07 0.11 0.14 0.14 0.09 0.10 0.09 0.06
0.09 0.15 0.16 0.08 0.06 0.05 0.04 0.04 0.02 0.01 0.01 0.01 0.01 0.02 0.04 0.05 0.05 0.06 0.06 0.07 0.06 0.05 0.06 0.05 0.05 0.05 0.04 0.05 0.05 0.05 0.06 0.07 0.04 0.05 0.05 0.04 0.07 0.11 0.13 0.10 0.13 0.16 0.10
0.10 0.13 0.10 0.07 0.06 0.05 0.06 0.06 0.04 0.03 0.02 0.02 0.01 0.02 0.03 0.04 0.05 0.05 0.05 0.06 0.06 0.05 0.05 0.06 0.05 0.04 0.03 0.04 0.04 0.03 0.05 0.07 0.05 0.04 0.05 0.05 0.05 0.06 0.07 0.07 0.09 0.15 0.11
0.07 0.06 0.05 0.05 0.06 0.07 0.08 0.11 0.09 0.05 0.04 0.03 0.02 0.02 0.03 0.05 0.04 0.03 0.02 0.03 0.04 0.06 0.06 0.07 0.08 0.06 0.04 0.03 0.03 0.02 0.03 0.05 0.06 0.06 0.06 0.06 0.05 0.06 0.06 0.07 0.06 0.07 0.07
0.11 0.09 0.08 0.05 0.06 0.07 0.09 0.14 0.08 0.04 0.03 0.03 0.02 0.02 0.02 0.02 0.03 0.03 0.03 0.02 0.02 0.03 0.05 0.09 0.07 0.05 0.04 0.04 0.03 0.03 0.03 0.03 0.05 0.08 0.08 0.08 0.07 0.07 0.07 0.07 0.06 0.06 0.06
0.07 0.05 0.04 0.04 0.05 0.05 0.06 0.11 0.04 0.03 0.03 0.03 0.02 0.02 0.03 0.02 0.02 0.02 0.02 0.03 0.02 0.02 0.04 0.07 0.04 0.03 0.04 0.05 0.05 0.05 0.03 0.03 0.04 0.06 0.08 0.08 0.08 0.09 0.08 0.08 0.08 0.06 0.07
0.03 0.03 0.02 0.03 0.02 0.02 0.03 0.03 0.02 0.02 0.02 0.02 0.02 0.02 0.02 0.02 0.01 0.02 0.02 0.02 0.03 0.04 0.04 0.04 0.04 0.04 0.05 0.06 0.07 0.05 0.04 0.04 0.04 0.05 0.06 0.05 0.06 0.08 0.08 0.07 0.09 0.08 0.06
0.03 0.03 0.02 0.02 0.02 0.02 0.02 0.03 0.04 0.04 0.03 0.02 0.02 0.03 0.02 0.02 0.02 0.02 0.02 0.03 0.04 0.05 0.05 0.05 0.05 0.05 0.06 0.07 0.07 0.06 0.05 0.06 0.05 0.04 0.05 0.05 0.05 0.05 0.06 0.06 0.08 0.10 0.07
0.04 0.02 0.02 0.02 0.02 0.02 0.03 0.05 0.07 0.09 0.07 0.04 0.03 0.02 0.02 0.02 0.03 0.03 0.03 0.04 0.04 0.04 0.04 0.05 0.05 0.05 0.05 0.06 0.08 0.08 0.08 0.07 0.07 0.06 0.04 0.05 0.06 0.05 0.04 0.04 0.06 0.08 0.07
0.02 0.02 0.02 0.02 0.02 0.02 0.04 0.04 0.06 0.12 0.12 0.07 0.04 0.03 0.02 0.02 0.02 0.02 0.02 0.02 0.02 0.03 0.03 0.04 0.04 0.03 0.03 0.04 0.06 0.08 0.09 0.09 0.09 0.08 0.07 0.05 0.05 0.04 0.04 0.05 0.04 0.06 0.06
0.03 0.03 0.03 0.03 0.02 0.02 0.03 0.04 0.05 0.07 0.09 0.06 0.04 0.03 0.02 0.01 0.01 0.01 0.01 0.01 0.01 0.01 0.02 0.02 0.03 0.03 0.02 0.03 0.05 0.06 0.05 0.07 0.09 0.09 0.08 0.06 0.05 0.05 0.04 0.05 0.06 0.06 0.06
0.04 0.05 0.04 0.03 0.02 0.02 0.02 0.03 0.04 0.04 0.04 0.05 0.04 0.03 0.02 0.01 0.01 0.01 0.01 0.01 0.01 0.01 0.01 0.02 0.02 0.01 0.01 0.01 0.02 0.03 0.04 0.06 0.06 0.07 0.08 0.07 0.06 0.05 0.05 0.04 0.04 0.06 0.07
0.05 0.07 0.04 0.03 0.02 0.02 0.02 0.02 0.02 0.03 0.04 0.04 0.03 0.03 0.02 0.02 0.02 0.01 0.01 0.01 0.01 0.01 0.01 0.02 0.02 0.01 0.02 0.01 0.01 0.02 0.03 0.04 0.04 0.04 0.04 0.05 0.06 0.06 0.06 0.04 0.04 0.05 0.05
0.05 0.05 0.04 0.04 0.03 0.02 0.02 0.02 0.02 0.02 0.02 0.03 0.02 0.02 0.02 0.02 0.02 0.02 0.01 0.01 0.01 0.01 0.01 0.02 0.01 0.01 0.01 0.02 0.02 0.02 0.03 0.02 0.02 0.03 0.04 0.04 0.05 0.06 0.06 0.06 0.04 0.04 0.04
0.07 0.05 0.04 0.04 0.03 0.03 0.02 0.02 0.01 0.02 0.03 0.03 0.04 0.04 0.04 0.04 0.03 0.03 0.03 0.02 0.01 0.01 0.02 0.02 0.01 0.01 0.01 0.01 0.01 0.01 0.02 0.02 0.02 0.03 0.04 0.05 0.06 0.07 0.07 0.08 0.08 0.06 0.04
0.03 0.03 0.03 0.06 0.06 0.03 0.02 0.02 0.02 0.02 0.03 0.04 0.05 0.05 0.06 0.08 0.08 0.07 0.05 0.03 0.03 0.03 0.03 0.02 0.01 0.01 0.00 0.00 0.00 0.00 0.01 0.02 0.02 0.02 0.04 0.05 0.06 0.07 0.08 0.08 0.07 0.06 0.05
0.04 0.04 0.04 0.05 0.04 0.03 0.02 0.02 0.02 0.02 0.03 0.06 0.09 0.08 0.07 0.11 0.14 0.14 0.12 0.07 0.05 0.04 0.03 0.03 0.02 0.01 0.01 0.00 0.00 0.00 0.01 0.02 0.02 0.02 0.02 0.03 0.03 0.05 0.05 0.04 0.03 0.03 0.03
0.03 0.04 0.04 0.03 0.02 0.01 0.01 0.01 0.02 0.02 0.03 0.03 0.03 0.03 0.02 0.02 0.04 0.07 0.09 0.10 0.06 0.04 0.04 0.04 0.03 0.02 0.02 0.01 0.01 0.00 0.01 0.01 0.01 0.01 0.01 0.02 0.02 0.03 0.04 0.03 0.02 0.02 0.02
0.03 0.03 0.05 0.04 0.01 0.01 0.01 0.01 0.02 0.02 0.03 0.03 0.02 0.01 0.01 0.01 0.02 0.03 0.04 0.05 0.06 0.05 0.05 0.05 0.04 0.03 0.03 0.02 0.02 0.02 0.01 0.01 0.02 0.01 0.01 0.01 0.01 0.01 0.02 0.02 0.01 0.01 0.01
0.03 0.02 0.02 0.04 0.03 0.01 0.01 0.02 0.02 0.03 0.03 0.03 0.03 0.03 0.02 0.02 0.02 0.03 0.03 0.04 0.05 0.05 0.06 0.06 0.05 0.04 0.03 0.02 0.02 0.02 0.02 0.02 0.01 0.01 0.00 0.00 0.01 0.01 0.01 0.01 0.01 0.01 0.01
0.03 0.01 0.01 0.01 0.02 0.03 0.03 0.02 0.02 0.02 0.02 0.02 0.02 0.03 0.03 0.03 0.03 0.03 0.03 0.03 0.04 0.04 0.05 0.05 0.05 0.04 0.04 0.04 0.04 0.03 0.03 0.03 0.03 0.02 0.01 0.01 0.01 0.00 0.01 0.01 0.01 0.01 0.00
0.02 0.01 0.01 0.01 0.02 0.03 0.03 0.02 0.02 0.01 0.01 0.01 0.02 0.02 0.03 0.03 0.03 0.03 0.04 0.05 0.05 0.05 0.04 0.05 0.05 0.05 0.05 0.05 0.05 0.04 0.03 0.03 0.03 0.03 0.02 0.01 0.01 0.00 0.01 0.01 0.01 0.01 0.00
0.02 0.01 0.01 0.01 0.01 0.01 0.02 0.03 0.02 0.02 0.01 0.01 0.02 0.03 0.03 0.03 0.04 0.04 0.04 0.04 0.05 0.06 0.05 0.04 0.04 0.04 0.04 0.04 0.05 0.04 0.03 0.03 0.02 0.01 0.01 0.00 0.00 0.01 0.01 0.01 0.01 0.01 0.01
0.02 0.02 0.03 0.02 0.02 0.03 0.05 0.04 0.03 0.03 0.02 0.02 0.01 0.02 0.02 0.03 0.03 0.03 0.03 0.04 0.05 0.05 0.05 0.05 0.06 0.07 0.05 0.06 0.05 0.04 0.03 0.03 0.02 0.01 0.01 0.01 0.00 0.01 0.01 0.01 0.01 0.01 0.01
MSLP
1011.93 1011.56 1011.21 1010.86 1010.51 1010.15 1009.82 1009.53 1009.32 1009.20 1009.18 1009.23 1009.34 1009.43 1009.49 1009.46 1009.34 1009.12 1008.84 1008.55 1008.30 1008.13 1008.09 1008.20 1008.45 1008.82 1009.29 1009.80 1010.34 1010.89 1011.43 1011.98 1012.53 1013.09 1013.67 1014.26 1014.85 1015.41 1015.94 1016.42 1016.84 1017.22 1017.57
1012.52 1012.22 1011.91 1011.57 1011.20 1010.80 1010.40 1010.06 1009.80 1009.65 1009.62 1009.66 1009.76 1009.85 1009.88 1009.82 1009.64 1009.38 1009.06 1008.74 1008.48 1008.33 1008.31 1008.44 1008.70 1009.06 1009.49 1009.95 1010.41 1010.87 1011.34 1011.83 1012.35 1012.93 1013.55 1014.21 1014.89 1015.55 1016.16 1016.71 1017.18 1017.60 1017.96
1012.96 1012.77 1012.54 1012.26 1011.90 1011.48 1011.05 1010.65 1010.34 1010.16 1010.09 1010.12 1010.21 1010.28 1010.29 1010.21 1010.01 1009.71 1009.37 1009.04 1008.77 1008.62 1008.60 1008.73 1008.97 1009.30 1009.67 1010.05 1010.42 1010.80 1011.19 1011.62 1012.13 1012.71 1013.38 1014.10 1014.86 1015.61 1016.30 1016.93 1017.46 1017.91 1018.29
1013.26 1013.20 1013.08 1012.86 1012.53 1012.11 1011.66 1011.22 1010.87 1010.64 1010.54 1010.56 1010.63 1010.70 1010.71 1010.62 1010.42 1010.12 1009.77 1009.44 1009.17 1009.00 1008.97 1009.07 1009.27 1009.54 1009.83 1010.13 1010.41 1010.70 1011.02 1011.41 1011.89 1012.48 1013.18 1013.95 1014.77 1015.59 1016.35 1017.03 1017.62 1018.10 1018.51
1013.49 1013.54 1013.51 1013.36 1013.07 1012.66 1012.18 1011.71 1011.32 1011.06 1010.93 1010.93 1011.00 1011.08 1011.11 1011.04 1010.86 1010.58 1010.25 1009.92 1009.65 1009.47 1009.41 1009.46 1009.61 1009.80 1010.00 1010.21 1010.41 1010.62 1010.88 1011.22 1011.67 1012.26 1012.96 1013.77 1014.62 1015.48 1016.28 1017.01 1017.62 1018.14 1018.58
1013.71 1013.83 1013.88 1013.78 1013.51 1013.10 1012.61 1012.11 1011.69 1011.39 1011.25 1011.24 1011.31 1011.41 1011.46 1011.43 1011.29 1011.05 1010.75 1010.44 1010.16 1009.97 1009.88 1009.88 1009.95 1010.06 1010.18 1010.30 1010.42 1010.56 1010.76 1011.06 1011.49 1012.05 1012.75 1013.55 1014.40 1015.27 1016.09 1016.83 1017.47 1018.02 1018.48
1013.96 1014.14 1014.22 1014.14 1013.89 1013.48 1012.97 1012.45 1012.00 1011.68 1011.51 1011.49 1011.57 1011.68 1011.77 1011.77 1011.67 1011.48 1011.22 1010.93 1010.67 1010.46 1010.33 1010.28 1010.28 1010.31 1010.36 1010.40 1010.46 1010.54 1010.69 1010.94 1011.33 1011.86 1012.52 1013.29 1014.12 1014.97 1015.77 1016.51 1017.17 1017.74 1018.23
1014.27 1014.45 1014.54 1014.48 1014.22 1013.81 1013.29 1012.75 1012.28 1011.94 1011.76 1011.72 1011.79 1011.91 1012.01 1012.05 1011.99 1011.84 1011.61 1011.35 1011.10 1010.88 1010.72 1010.63 1010.57 1010.55 1010.53 1010.51 1010.51 1010.54 1010.64 1010.85 1011.19 1011.67 1012.28 1013.00 1013.78 1014.58 1015.36 1016.08 1016.74 1017.33 1017.85
1014.60 1014.77 1014.86 1014.78 1014.53 1014.12 1013.60 1013.06 1012.59 1012.23 1012.02 1011.96 1012.01 1012.11 1012.21 1012.26 1012.22 1012.09 1011.89 1011.66 1011.42 1011.20 1011.03 1010.91 1010.82 1010.75 1010.68 1010.62 1010.58 1010.57 1010.63 1010.79 1011.08 1011.50 1012.04 1012.69 1013.40 1014.15 1014.88 1015.58 1016.24 1016.84 1017.41
1014.89 1015.05 1015.12 1015.05 1014.81 1014.41 1013.92 1013.40 1012.93 1012.56 1012.33 1012.24 1012.24 1012.31 1012.38 1012.40 1012.35 1012.24 1012.06 1011.84 1011.62 1011.43 1011.26 1011.13 1011.02 1010.93 1010.83 1010.74 1010.66 1010.62 1010.64 1010.75 1010.98 1011.33 1011.81 1012.38 1013.02 1013.70 1014.40 1015.07 1015.72 1016.34 1016.94
1015.10 1015.24 1015.31 1015.25 1015.04 1014.68 1014.23 1013.74 1013.30 1012.93 1012.68 1012.55 1012.50 1012.50 1012.51 1012.49 1012.42 1012.29 1012.12 1011.93 1011.73 1011.56 1011.42 1011.30 1011.20 1011.10 1010.99 1010.89 1010.78 1010.71 1010.69 1010.75 1010.92 1011.21 1011.60 1012.10 1012.68 1013.30 1013.94 1014.60 1015.24 1015.87 1016.50
1015.18 1015.32 1015.40 1015.36 1015.19 1014.89 1014.50 1014.07 1013.66 1013.32 1013.05 1012.88 1012.77 1012.70 1012.63 1012.55 1012.43 1012.29 1012.12 1011.94 1011.78 1011.65 1011.54 1011.45 1011.37 1011.29 1011.18 1011.07 1010.94 1010.84 1010.78 1010.79 1010.90 1011.13 1011.46 1011.89 1012.40 1012.97 1013.57 1014.19 1014.82 1015.46 1016.10
1015.15 1015.30 1015.39 1015.38 1015.25 1015.02 1014.70 1014.35 1014.00 1013.68 1013.41 1013.19 1013.02 1012.88 1012.74 1012.59 1012.43 1012.26 1012.09 1011.94 1011.81 1011.72 1011.66 1011.62 1011.57 1011.51 1011.41 1011.29 1011.15 1011.02 1010.92 1010.90 1010.95 1011.12 1011.39 1011.76 1012.21 1012.73 1013.29 1013.88 1014.48 1015.10 1015.74
1015.06 1015.21 1015.31 1015.32 1015.24 1015.07 1014.83 1014.55 1014.26 1013.97 1013.71 1013.47 1013.25 1013.04 1012.83 1012.62 1012.42 1012.22 1012.06 1011.93 1011.85 1011.81 1011.80 1011.80 1011.79 1011.75 1011.67 1011.55 1011.40 1011.25 1011.12 1011.05 1011.07 1011.18 1011.40 1011.72 1012.12 1012.59 1013.10 1013.65 1014.21 1014.79 1015.39
1014.99 1015.12 1015.20 1015.22 1015.17 1015.05 1014.88 1014.67 1014.43 1014.19 1013.94 1013.69 1013.43 1013.17 1012.91 1012.65 1012.41 1012.20 1012.04 1011.94 1011.89 1011.90 1011.94 1011.99 1012.01 1012.00 1011.93 1011.82 1011.66 1011.49 1011.34 1011.25 1011.23 1011.31 1011.49 1011.77 1012.12 1012.54 1013.00 1013.48 1013.99 1014.50 1015.04
1014.99 1015.08 1015.14 1015.14 1015.10 1015.01 1014.88 1014.72 1014.53 1014.33 1014.10 1013.84 1013.57 1013.28 1012.98 1012.68 1012.41 1012.19 1012.04 1011.96 1011.94 1011.98 1012.06 1012.14 1012.20 1012.20 1012.15 1012.04 1011.89 1011.72 1011.57 1011.46 1011.43 1011.49 1011.64 1011.88 1012.20 1012.56 1012.96 1013.38 1013.80 1014.23 1014.68
1015.10 1015.14 1015.15 1015.12 1015.06 1014.97 1014.86 1014.74 1014.59 1014.41 1014.20 1013.95 1013.67 1013.36 1013.03 1012.71 1012.43 1012.20 1012.04 1011.96 1011.96 1012.02 1012.12 1012.22 1012.29 1012.31 1012.28 1012.19 1012.05 1011.90 1011.76 1011.66 1011.64 1011.69 1011.83 1012.05 1012.33 1012.64 1012.97 1013.31 1013.65 1013.98 1014.32
1015.32 1015.30 1015.25 1015.17 1015.08 1014.98 1014.88 1014.76 1014.64 1014.48 1014.28 1014.04 1013.75 1013.43 1013.09 1012.75 1012.44 1012.20 1012.02 1011.94 1011.93 1011.98 1012.07 1012.17 1012.24 1012.28 1012.26 1012.19 1012.09 1011.97 1011.86 1011.80 1011.81 1011.88 1012.03 1012.23 1012.48 1012.75 1013.03 1013.29 1013.54 1013.77 1014.00
1015.60 1015.53 1015.43 1015.30 1015.18 1015.06 1014.94 1014.84 1014.71 1014.56 1014.37 1014.13 1013.84 1013.50 1013.14 1012.79 1012.46 1012.18 1011.98 1011.85 1011.81 1011.83 1011.89 1011.97 1012.03 1012.07 1012.07 1012.03 1011.97 1011.90 1011.86 1011.86 1011.91 1012.03 1012.20 1012.41 1012.64 1012.88 1013.11 1013.30 1013.47 1013.62 1013.76
1015.87 1015.78 1015.64 1015.49 1015.34 1015.20 1015.08 1014.97 1014.84 1014.69 1014.50 1014.25 1013.94 1013.59 1013.21 1012.83 1012.46 1012.14 1011.89 1011.71 1011.61 1011.57 1011.58 1011.62 1011.66 1011.69 1011.70 1011.70 1011.70 1011.70 1011.73 1011.81 1011.93 1012.10 1012.31 1012.54 1012.78 1013.01 1013.20 1013.35 1013.47 1013.55 1013.62
1016.08 1015.98 1015.85 1015.70 1015.54 1015.40 1015.28 1015.15 1015.02 1014.86 1014.65 1014.39 1014.07 1013.70 1013.29 1012.87 1012.46 1012.09 1011.78 1011.53 1011.34 1011.23 1011.17 1011.15 1011.15 1011.16 1011.19 1011.22 1011.28 1011.36 1011.47 1011.63 1011.84 1012.08 1012.34 1012.61 1012.87 1013.10 1013.28 1013.41 1013.50 1013.55 1013.59
1016.18 1016.13 1016.02 1015.90 1015.77 1015.64 1015.51 1015.38 1015.23 1015.05 1014.82 1014.54 1014.19 1013.80 1013.36 1012.91 1012.46 1012.03 1011.65 1011.32 1011.06 1010.85 1010.71 1010.61 1010.56 1010.55 1010.58 1010.64 1010.74 1010.90 1011.09 1011.34 1011.62 1011.94 1012.26 1012.58 1012.87 1013.11 1013.30 1013.44 1013.53 1013.58 1013.62
1016.19 1016.20 1016.16 1016.08 1015.99 1015.88 1015.76 1015.62 1015.46 1015.25 1014.99 1014.68 1014.31 1013.89 1013.43 1012.95 1012.46 1011.98 1011.54 1011.13 1010.78 1010.49 1010.25 1010.08 1009.97 1009.92 1009.93 1010.00 1010.14 1010.34 1010.61 1010.93 1011.29 1011.66 1012.05 1012.41 1012.74 1013.02 1013.24 1013.40 1013.51 1013.59 1013.65
1016.14 1016.23 1016.26 1016.25 1016.20 1016.12 1016.00 1015.85 1015.66 1015.42 1015.13 1014.78 1014.39 1013.95 1013.48 1012.98 1012.47 1011.96 1011.47 1011.00 1010.58 1010.20 1009.88 1009.62 1009.43 1009.32 1009.30 1009.36 1009.51 1009.74 1010.05 1010.42 1010.82 1011.25 1011.68 1012.09 1012.46 1012.77 1013.03 1013.23 1013.38 1013.50 1013.60
1016.08 1016.25 1016.36 1016.41 1016.40 1016.33 1016.21 1016.04 1015.81 1015.54 1015.21 1014.84 1014.43 1013.98 1013.50 1013.01 1012.49 1011.98 1011.46 1010.95 1010.47 1010.02 1009.62 1009.27 1009.01 1008.83 1008.74 1008.77 1008.89 1009.12 1009.43 1009.82 1010.25 1010.71 1011.17 1011.60 1012.00 1012.34 1012.64 1012.88 1013.08 1013.25 1013.39
1016.06 1016.30 1016.48 1016.57 1016.59 1016.52 1016.39 1016.18 1015.91 1015.59 1015.23 1014.83 1014.41 1013.97 1013.51 1013.04 1012.55 1012.04 1011.53 1011.01 1010.49 1009.98 1009.51 1009.08 1008.73 1008.47 1008.31 1008.27 1008.34 1008.53 1008.81 1009.18 1009.61 1010.06 1010.52 1010.96 1011.37 1011.73 1012.05 1012.33 1012.56 1012.77 1012.96
Thickness
5779 5779 5778 5775 5772 5769 5766 5762 5759 5756 5754 5751 5746 5743 5740 5740 5739 5739 5739 5739 5739 5738 5737 5736 5735 5734 5732 5731 5731 5729 5727 5726 5726 5722 5719 5720 5722 5723 5723 5724 5723 5722 5722
5770 5771 5770 5768 5766 5763 5761 5758 5755 5753 5751 5748 5744 5741 5738 5736 5736 5735 5735 5735 5735 5735 5735 5733 5732 5731 5729 5728 5727 5726 5723 5722 5723 5719 5713 5709 5710 5715 5719 5720 5720 5719 5719
5766 5766 5765 5765 5763 5760 5757 5756 5753 5751 5748 5745 5741 5737 5734 5732 5730 5729 5729 5730 5731 5731 5731 5731 5730 5728 5727 5724 5723 5723 5720 5717 5719 5719 5714 5707 5702 5706 5711 5715 5716 5716 5716
5769 5765 5764 5763 5761 5759 5756 5753 5750 5747 5744 5742 5737 5732 5728 5724 5724 5724 5724 5725 5726 5726 5727 5727 5726 5725 5724 5722 5722 5721 5720 5717 5714 5715 5716 5715 5712 5705 5703 5708 5711 5713 5713
5768 5765 5763 5761 5758 5755 5752 5748 5745 5742 5740 5738 5733 5729 5725 5723 5722 5721 5721 5720 5721 5722 5722 5722 5721 5720 5720 5720 5719 5719 5718 5716 5714 5712 5712 5711 5710 5709 5703 5700 5704 5707 5710
5762 5760 5760 5756 5752 5750 5747 5743 5739 5735 5734 5732 5729 5726 5722 5720 5717 5716 5715 5715 5715 5717 5718 5718 5717 5717 5717 5717 5716 5716 5715 5714 5713 5712 5711 5709 5706 5704 5702 5699 5699 5700 5704
5757 5753 5751 5748 5746 5744 5741 5738 5734 5731 5730 5728 5725 5723 5720 5717 5714 5712 5711 5710 5710 5710 5712 5713 5712 5712 5713 5713 5713 5713 5712 5712 5711 5710 5709 5708 5708 5707 5704 5700 5697 5697 5699
5754 5751 5748 5746 5742 5739 5736 5733 5729 5726 5725 5723 5720 5719 5717 5713 5711 5709 5708 5707 5706 5707 5708 5708 5708 5709 5709 5709 5709 5709 5709 5709 5709 5709 5708 5707 5706 5706 5704 5700 5696 5692 5692
5746 5745 5743 5740 5737 5734 5731 5727 5724 5721 5720 5718 5716 5714 5712 5710 5708 5706 5705 5704 5704 5704 5704 5704 5704 5704 5704 5704 5705 5704 5704 5705 5705 5705 5705 5704 5704 5703 5703 5701 5699 5693 5687
5739 5739 5737 5736 5733 5730 5726 5723 5720 5716 5715 5714 5712 5710 5707 5706 5705 5703 5701 5700 5700 5699 5699 5699 5699 5699 5699 5700 5700 5701 5701 5701 5700 5701 5701 5700 5700 5701 5700 5699 5698 5696 5691
5734 5733 5731 5729 5727 5724 5721 5717 5714 5711 5709 5708 5706 5704 5702 5701 5700 5698 5697 5696 5695 5695 5694 5694 5694 5695 5695 5695 5695 5696 5697 5696 5696 5696 5697 5696 5697 5696 5695 5695 5694 5693 5691
5731 5729 5726 5723 5719 5717 5714 5712 5709 5706 5704 5703 5701 5699 5697 5696 5694 5693 5692 5691 5690 5690 5690 5690 5690 5690 5691 5691 5691 5691 5692 5691 5691 5691 5692 5691 5692 5691 5691 5690 5690 5689 5688
5725 5722 5719 5716 5713 5710 5708 5706 5704 5701 5699 5697 5694 5692 5691 5690 5689 5688 5687 5687 5686 5685 5685 5684 5684 5685 5686 5686 5686 5686 5686 5686 5686 5687 5687 5687 5686 5686 5686 5685 5685 5684 5685
5718 5715 5711 5708 5707 5705 5702 5700 5698 5696 5693 5690 5688 5686 5685 5685 5684 5683 5682 5681 5681 5680 5680 5680 5680 5681 5681 5681 5681 5681 5681 5681 5681 5682 5683 5683 5683 5682 5681 5681 5680 5680 5678
5710 5708 5704 5701 5699 5698 5697 5695 5693 5690 5688 5685 5683 5682 5681 5681 5680 5678 5677 5676 5676 5676 5675 5675 5675 5676 5676 5677 5676 5676 5676 5675 5676 5677 5678 5679 5680 5680 5679 5678 5677 5676 5673
5703 5701 5698 5696 5693 5692 5691 5689 5687 5685 5683 5680 5678 5677 5676 5675 5674 5673 5672 5671 5670 5670 5670 5670 5670 5670 5672 5673 5672 5672 5671 5670 5670 5671 5672 5673 5674 5675 5675 5675 5674 5673 5670
5696 5694 5692 5690 5687 5686 5685 5682 5681 5680 5677 5675 5673 5672 5670 5668 5667 5667 5666 5665 5665 5664 5664 5664 5665 5665 5666 5667 5667 5667 5666 5665 5665 5665 5666 5667 5669 5669 5669 5669 5669 5669 5668
5690 5688 5686 5683 5682 5681 5679 5677 5676 5674 5672 5669 5668 5667 5665 5663 5661 5660 5660 5659 5659 5659 5659 5659 5659 5659 5660 5661 5661 5661 5660 5660 5660 5661 5661 5661 5662 5663 5663 5662 5662 5662 5663
5687 5683 5681 5679 5676 5675 5673 5671 5669 5667 5665 5663 5662 5661 5660 5658 5656 5655 5654 5654 5654 5654 5654 5654 5653 5653 5654 5656 5656 5655 5654 5653 5654 5655 5656 5657 5656 5657 5657 5656 5655 5655 5656
5681 5678 5675 5673 5670 5668 5667 5664 5661 5659 5658 5657 5657 5656 5655 5653 5651 5650 5649 5650 5650 5649 5649 5648 5648 5648 5649 5650 5650 5649 5648 5647 5647 5649 5650 5652 5652 5651 5650 5649 5648 5647 5649
5673 5672 5669 5665 5663 5662 5660 5656 5653 5652 5652 5652 5651 5650 5649 5648 5647 5645 5645 5644 5644 5643 5642 5642 5643 5643 5644 5645 5644 5643 5642 5641 5641 5642 5643 5645 5646 5646 5645 5644 5643 5644 5645
5664 5663 5660 5658 5657 5655 5653 5649 5647 5647 5647 5646 5644 5643 5643 5643 5642 5639 5639 5638 5637 5636 5635 5635 5635 5636 5637 5638 5638 5637 5636 5636 5635 5636 5637 5639 5640 5640 5639 5639 5639 5639 5639
5656 5654 5652 5650 5649 5648 5647 5643 5642 5641 5640 5638 5636 5636 5636 5636 5635 5633 5633 5632 5630 5629 5628 5628 5627 5628 5629 5630 5631 5630 5630 5630 5630 5631 5632 5632 5633 5633 5633 5633 5633 5633 5632
5648 5646 5644 5642 5641 5641 5641 5639 5638 5636 5634 5632 5630 5629 5628 5628 5628 5628 5627 5625 5624 5623 5621 5621 5621 5621 5622 5623 5623 5623 5624 5624 5623 5624 5624 5625 5625 5626 5626 5626 5626 5626 5626
5642 5639 5637 5636 5635 5634 5634 5634 5632 5630 5627 5625 5624 5623 5622 5622 5621 5621 5621 5620 5619 5618 5616 5616 5616 5615 5615 5617 5618 5617 5618 5617 5617 5616 5616 5616 5617 5617 5618 5618 5619 5619 5619
5635 5633 5632 5631 5630 5629 5628 5628 5627 5625 5622 5619 5618 5617 5617 5616 5615 5615 5614 5614 5614 5614 5614 5613 5613 5613 5613 5613 5613 5612 5612 5612 5610 5608 5608 5609 5609 5610 5610 5611 5611 5612 5612